TimeEST,TemperatureF,Dew PointF,Humidity,Sea Level PressureIn,VisibilityMPH,Wind Direction,Wind SpeedMPH,Gust SpeedMPH,PrecipitationIn,Events,Conditions,WindDirDegrees,DateUTC
12:15 AM,44.2,36.5,74,29.55,10.0,South,16.1,24.2,N/A,Rain,Rain,190,2013-02-19 05:15:00
12:34 AM,43.9,37.4,78,29.52,7.0,South,13.8,27.6,N/A,Rain,Light Rain,170,2013-02-19 05:34:00
12:54 AM,43.7,37.6,79,29.52,7.0,South,20.7,27.6,N/A,Rain,Light Rain,170,2013-02-19 05:54:00
1:14 AM,43.2,37.6,81,29.50,10.0,South,16.1,23.0,N/A,,Drizzle,180,2013-02-19 06:14:00
1:34 AM,43.3,38.1,82,29.48,7.0,South,18.4,29.9,N/A,,Drizzle,190,2013-02-19 06:34:00
1:55 AM,43.3,38.3,82,29.46,7.0,South,17.3,24.2,N/A,Rain,Rain,180,2013-02-19 06:55:00
2:14 AM,42.8,38.3,84,29.45,7.0,South,17.3,24.2,N/A,Rain,Light Rain,190,2013-02-19 07:14:00
2:34 AM,43.0,38.3,84,29.43,7.0,South,19.6,29.9,N/A,Rain,Rain,180,2013-02-19 07:34:00
2:55 AM,42.8,38.3,84,29.42,7.0,South,17.3,28.8,N/A,Rain,Light Rain,180,2013-02-19 07:55:00
3:14 AM,42.6,37.9,83,29.40,7.0,South,17.3,31.1,N/A,Rain,Light Rain,190,2013-02-19 08:14:00
3:34 AM,42.4,37.8,83,29.39,10.0,South,18.4,25.3,N/A,Rain,Light Rain,180,2013-02-19 08:34:00
3:54 AM,42.4,38.3,85,29.38,7.0,South,15.0,25.3,N/A,Rain,Light Rain,190,2013-02-19 08:54:00
4:14 AM,42.6,38.3,85,29.37,10.0,South,16.1,23.0,N/A,Rain,Light Rain,190,2013-02-19 09:14:00
4:35 AM,40.1,35.1,82,29.41,5.0,West,25.3,38.0,N/A,Rain,Light Rain,260,2013-02-19 09:35:00
4:54 AM,36.7,32.9,86,29.42,7.0,WSW,21.9,28.8,N/A,Rain,Light Rain,250,2013-02-19 09:54:00
5:14 AM,35.8,32.0,86,29.44,10.0,WSW,17.3,25.3,N/A,Rain,Light Rain,250,2013-02-19 10:14:00
5:35 AM,35.4,32.0,87,29.45,7.0,West,20.7,29.9,N/A,,Light Drizzle,260,2013-02-19 10:35:00
5:54 AM,35.2,32.0,88,29.45,7.0,West,17.3,21.9,N/A,,Overcast,260,2013-02-19 10:54:00
6:15 AM,34.7,31.3,87,29.46,7.0,West,21.9,32.2,N/A,,Overcast,260,2013-02-19 11:15:00
6:34 AM,34.0,30.7,88,29.48,7.0,WSW,23.0,28.8,N/A,,Overcast,250,2013-02-19 11:34:00
6:54 AM,33.3,30.2,89,29.49,7.0,WSW,12.7,26.5,N/A,,Overcast,240,2013-02-19 11:54:00
7:14 AM,32.9,30.0,89,29.50,7.0,WSW,16.1,24.2,N/A,,Overcast,240,2013-02-19 12:14:00
7:34 AM,32.0,28.4,87,29.51,10.0,WSW,18.4,28.8,N/A,,Overcast,250,2013-02-19 12:34:00
7:55 AM,31.5,27.3,85,29.52,10.0,WSW,21.9,28.8,N/A,,Overcast,250,2013-02-19 12:55:00
8:14 AM,30.4,26.4,85,29.53,10.0,WSW,17.3,26.5,N/A,,Overcast,240,2013-02-19 13:14:00
8:34 AM,29.3,25.3,85,29.55,7.0,WSW,20.7,31.1,N/A,,Overcast,250,2013-02-19 13:34:00
9:14 AM,28.6,24.8,86,29.56,4.0,WSW,16.1,27.6,N/A,Snow,Light Snow,250,2013-02-19 14:14:00
9:35 AM,27.7,23.9,86,29.57,5.0,SW,20.7,27.6,N/A,,Overcast,230,2013-02-19 14:35:00
9:54 AM,27.3,23.4,85,29.58,2.5,WSW,13.8,26.5,N/A,,Overcast,240,2013-02-19 14:54:00
10:14 AM,26.8,22.6,84,29.59,3.0,WSW,17.3,28.8,N/A,Snow,Light Snow,250,2013-02-19 15:14:00
10:34 AM,25.9,20.5,80,29.59,2.5,WSW,19.6,29.9,N/A,Snow,Light Snow,250,2013-02-19 15:34:00
10:54 AM,25.5,19.4,78,29.60,3.0,WSW,21.9,28.8,N/A,Snow,Light Snow,240,2013-02-19 15:54:00
11:15 AM,25.7,18.0,73,29.60,10.0,WSW,24.2,33.4,N/A,Snow,Light Snow,240,2013-02-19 16:15:00
11:34 AM,25.5,16.7,69,29.61,7.0,WSW,21.9,36.8,N/A,Snow,Light Snow,240,2013-02-19 16:34:00
11:54 AM,24.8,16.0,69,29.62,5.0,WSW,18.4,29.9,N/A,Snow,Light Snow,240,2013-02-19 16:54:00
12:15 PM,25.0,15.8,68,29.62,10.0,WSW,20.7,28.8,N/A,Snow,Light Snow,240,2013-02-19 17:15:00
12:34 PM,24.4,16.2,71,29.63,3.0,WSW,21.9,28.8,N/A,Snow,Light Snow,240,2013-02-19 17:34:00
12:54 PM,23.9,16.2,72,29.63,2.0,WSW,24.2,31.1,N/A,Snow,Light Snow,240,2013-02-19 17:54:00
1:15 PM,23.7,15.8,72,29.63,4.0,WSW,23.0,34.5,N/A,Snow,Light Snow,250,2013-02-19 18:15:00
1:34 PM,23.7,16.2,73,29.63,1.8,WSW,20.7,28.8,N/A,Snow,Light Snow,240,2013-02-19 18:34:00
1:54 PM,23.7,18.0,79,29.63,1.2,SW,15.0,24.2,N/A,Snow,Light Snow,230,2013-02-19 18:54:00
2:15 PM,23.7,17.8,78,29.64,0.5,WSW,18.4,31.1,N/A,Snow,Light Snow,250,2013-02-19 19:15:00
2:34 PM,23.9,14.7,68,29.65,10.0,WSW,20.7,33.4,N/A,Snow,Light Snow,250,2013-02-19 19:34:00
2:54 PM,24.4,14.4,66,29.66,10.0,WSW,21.9,29.9,N/A,,Overcast,250,2013-02-19 19:54:00
3:14 PM,24.3,14.4,66,29.66,7.0,WSW,25.3,31.1,N/A,Snow,Light Snow,250,2013-02-19 20:14:00
3:34 PM,24.1,13.8,65,29.68,7.0,WSW,19.6,29.9,N/A,Snow,Light Snow,250,2013-02-19 20:34:00
3:55 PM,24.1,13.8,65,29.69,10.0,West,20.7,27.6,N/A,Snow,Light Snow,260,2013-02-19 20:55:00
4:14 PM,23.7,13.8,66,29.70,5.0,WSW,21.9,31.1,N/A,Snow,Light Snow,250,2013-02-19 21:14:00
4:34 PM,23.4,14.9,70,29.71,1.2,West,23.0,31.1,N/A,Snow,Light Snow,260,2013-02-19 21:34:00
4:55 PM,22.1,16.2,78,29.73,0.5,WSW,18.4,27.6,N/A,Snow,Light Snow,250,2013-02-19 21:55:00
5:14 PM,21.9,16.7,80,29.74,0.5,West,19.6,26.5,N/A,Snow,Light Snow,260,2013-02-19 22:14:00
5:31 PM,21.4,15.6,78,29.75,1.0,West,23.0,31.1,N/A,Snow,Light Snow,260,2013-02-19 22:31:00
5:54 PM,21.2,14.9,77,29.76,4.0,West,18.4,25.3,N/A,Snow,Light Snow,260,2013-02-19 22:54:00
6:15 PM,21.2,14.0,74,29.78,5.0,West,18.4,25.3,N/A,Snow,Light Snow,260,2013-02-19 23:15:00
7:34 PM,19.4,10.8,69,29.84,5.0,West,19.6,26.5,N/A,Snow,Light Snow,260,2013-02-20 00:34:00
8:34 PM,19.2,9.9,67,29.86,10.0,West,13.8,29.9,N/A,,Overcast,260,2013-02-20 01:34:00
8:55 PM,18.7,10.9,72,29.86,7.0,West,17.3,23.0,N/A,Snow,Light Snow,260,2013-02-20 01:55:00
9:14 PM,18.7,10.2,70,29.86,7.0,West,18.4,27.6,N/A,Snow,Light Snow,260,2013-02-20 02:14:00
9:35 PM,18.3,9.0,67,29.87,10.0,West,19.6,26.5,N/A,,Overcast,260,2013-02-20 02:35:00
9:54 PM,18.3,8.6,66,29.88,10.0,West,15.0,21.9,N/A,,Overcast,260,2013-02-20 02:54:00
10:14 PM,18.3,9.5,68,29.88,10.0,West,18.4,26.5,N/A,,Overcast,260,2013-02-20 03:14:00
10:35 PM,18.1,9.3,68,29.88,10.0,West,23.0,28.8,N/A,,Overcast,270,2013-02-20 03:35:00
10:54 PM,18.0,8.6,67,29.88,10.0,West,18.4,26.5,N/A,,Mostly Cloudy,270,2013-02-20 03:54:00
11:14 PM,18.0,9.1,68,29.89,10.0,West,20.7,25.3,N/A,,Mostly Cloudy,270,2013-02-20 04:14:00
11:35 PM,18.0,9.3,69,29.89,10.0,West,15.0,25.3,N/A,,Overcast,270,2013-02-20 04:35:00
11:54 PM,17.6,9.5,71,29.89,10.0,West,15.0,-,N/A,,Mostly Cloudy,260,2013-02-20 04:54:00